Theta_e
313 314 315 316 316 316 314 313 313 314 314 316 319 319 322 328 326 320 323 324 320 322 316 319 327 313 314 318 319 321 330 334 333 323 322 326 329 325 327 332 330 331 329 332 334
313 314 314 315 316 315 315 316 315 316 314 316 319 320 320 327 323 321 325 322 320 319 319 322 318 317 315 318 319 323 333 334 331 323 322 326 328 327 329 331 332 332 332 334 332
312 312 314 314 313 315 314 314 313 315 314 315 319 320 322 324 322 323 322 320 321 318 318 318 318 319 319 319 319 324 332 332 325 320 321 326 328 326 329 332 330 331 333 334 331
311 311 312 312 311 314 315 313 312 312 314 314 319 320 322 320 331 322 322 320 320 323 317 317 318 320 323 319 321 325 324 327 324 318 319 326 325 325 329 330 328 328 332 331 332
310 310 310 309 310 313 315 313 311 313 315 314 317 320 321 322 322 320 319 319 324 324 325 320 320 321 325 323 320 319 321 319 317 317 317 321 326 326 327 327 323 328 333 333 334
310 310 310 308 310 311 312 312 310 312 315 314 315 320 321 323 322 322 317 319 325 326 326 324 322 322 323 326 321 320 318 318 316 317 316 318 321 324 325 326 325 330 333 333 333
309 310 310 308 308 310 310 310 309 311 316 315 314 318 321 322 321 319 317 319 321 326 328 326 326 325 325 327 323 319 318 315 316 317 317 317 317 318 323 325 325 330 331 332 332
308 308 310 309 307 309 309 310 309 309 313 315 314 314 321 320 319 318 318 320 318 318 319 328 327 327 328 324 324 327 324 323 319 316 316 317 319 320 320 322 325 328 329 331 332
309 308 309 308 307 307 308 309 311 311 311 311 314 313 319 316 318 319 319 320 316 311 313 322 324 324 323 331 329 324 334 329 327 317 317 317 320 319 319 322 323 326 327 331 331
309 308 309 308 306 306 306 307 310 310 312 314 313 317 315 319 315 316 318 319 316 312 314 317 318 321 317 334 341 334 335 327 333 321 320 318 323 319 318 321 322 324 327 329 330
310 308 308 307 306 308 308 309 309 310 311 314 312 312 314 317 315 315 314 314 313 315 319 316 323 330 329 329 334 335 335 332 331 326 320 325 323 324 318 320 323 323 325 327 329
309 309 308 306 307 308 307 308 307 311 313 311 312 312 314 316 318 315 315 318 316 318 314 315 322 326 323 322 333 334 333 334 320 317 318 324 325 325 322 317 320 323 323 325 326
309 308 307 305 306 307 307 306 310 310 309 310 312 312 315 316 318 316 317 316 318 316 315 318 321 320 319 321 324 333 335 335 331 315 314 318 327 325 323 319 317 318 322 323 325
309 308 306 304 306 306 307 307 309 307 310 310 313 316 316 318 319 314 314 313 312 314 313 316 314 316 319 321 321 333 333 330 316 318 330 319 337 333 327 323 319 317 317 320 321
308 308 305 303 304 307 306 307 307 305 309 310 314 315 317 318 316 316 313 312 313 310 311 315 314 311 319 318 318 326 322 322 318 322 326 318 323 327 327 325 319 318 317 317 318
308 307 304 304 306 306 307 307 306 309 308 316 315 317 320 318 318 315 313 311 309 310 308 309 309 310 315 315 314 314 315 315 317 322 327 326 323 328 325 323 322 319 317 317 317
308 306 305 305 306 306 307 308 308 307 312 317 314 316 320 319 318 314 314 313 314 316 317 310 309 310 309 312 309 313 321 319 323 322 327 313 322 322 320 317 318 320 320 317 317
307 306 305 305 306 305 305 307 304 308 311 309 310 313 317 317 318 314 316 318 314 316 316 319 318 311 311 312 315 315 325 324 329 328 325 308 317 318 316 317 318 315 314 315 317
306 306 305 305 305 305 308 308 307 309 307 311 312 314 318 315 319 316 318 319 318 317 321 320 319 312 312 312 312 315 316 317 314 310 319 316 315 314 314 312 311 312 312 312 313
305 305 304 305 305 306 307 306 303 308 307 307 312 314 318 316 320 318 319 318 318 316 317 318 315 313 309 308 310 309 315 316 316 320 321 318 315 318 314 314 313 310 311 311 312
303 304 303 304 304 307 305 304 303 302 303 308 309 313 313 318 320 319 319 318 316 316 316 319 314 312 310 311 314 312 314 315 316 315 322 319 316 313 315 313 312 310 309 309 309
302 305 303 303 305 304 306 304 305 307 306 308 306 308 310 316 320 321 319 318 315 313 316 318 317 314 314 311 311 311 312 314 318 316 311 313 317 308 310 309 309 310 310 309 308
303 304 303 303 305 305 304 303 303 303 307 308 308 308 309 315 318 319 318 316 314 313 315 311 316 317 315 314 313 312 311 313 313 313 318 325 318 309 307 308 309 310 309 308 308
303 304 303 303 304 303 304 303 304 304 307 306 308 306 307 312 316 318 317 314 314 313 311 311 314 318 318 316 316 315 313 312 314 323 319 316 317 309 309 309 309 309 309 308 309
298 303 302 303 304 304 303 303 304 304 305 306 308 307 308 315 317 317 316 313 313 314 311 315 316 313 309 311 317 315 313 311 313 314 316 316 314 313 311 310 310 310 309 310 309
300 300 299 304 302 304 304 304 304 304 305 306 307 306 307 308 317 317 315 314 314 310 313 315 317 312 311 311 314 319 316 314 311 312 313 314 314 313 313 312 311 310 310 309 309
296 297 306 304 305 305 305 305 304 304 304 305 308 308 309 309 315 315 313 312 312 313 314 314 313 317 316 312 314 314 313 311 313 313 313 313 313 311 309 308 310 311 311 311 309
Wind_Speed
20 21 20 21 21 19 17 17 16 18 14 13 14 15 15 14 17 18 22 14 14 6 12 12 13 12 11 4 4 3 9 12 15 12 12 9 12 5 4 6 7 7 3 4 26
21 20 20 21 21 21 19 17 16 16 15 13 15 15 15 16 17 24 20 23 19 14 12 12 7 8 7 11 5 10 12 17 9 10 10 11 15 12 8 10 8 8 4 18 24
23 21 20 20 21 23 21 19 16 18 19 12 15 16 14 14 6 8 24 26 20 17 14 15 13 4 12 12 10 9 15 16 7 6 4 10 14 13 11 13 13 14 14 19 22
25 23 21 20 19 22 21 19 19 16 19 20 15 17 17 16 9 13 28 23 26 22 20 18 9 4 5 8 12 11 16 9 6 7 4 11 10 10 16 5 7 11 19 21 21
28 26 24 20 18 20 22 20 17 17 20 22 16 19 17 7 8 5 22 28 22 26 25 13 14 8 9 4 9 11 8 8 5 8 6 4 13 13 16 8 1 9 20 20 21
30 27 26 21 17 17 18 18 16 14 21 21 19 21 14 19 14 13 13 23 24 26 25 21 13 11 3 6 3 7 8 9 8 9 6 6 7 8 14 12 9 14 18 18 22
32 29 27 22 19 16 17 16 14 11 21 21 23 17 12 19 10 20 19 19 19 27 20 23 15 13 11 3 2 5 10 8 10 10 5 6 6 12 6 14 14 15 15 16 19
36 32 30 24 20 16 14 15 12 11 13 15 18 16 13 21 15 20 22 21 17 12 4 23 19 12 3 9 3 2 4 12 15 13 6 11 16 16 14 14 17 16 15 15 18
38 35 33 28 24 18 14 10 10 11 13 10 13 11 15 18 17 19 20 22 13 13 9 6 12 4 1 9 6 3 6 15 14 15 7 12 11 18 15 16 16 16 16 15 16
38 37 33 29 24 20 14 9 5 7 9 9 10 3 6 9 10 19 13 25 8 13 4 4 4 5 4 9 18 8 12 6 18 12 14 14 15 5 11 15 18 18 17 17 17
39 38 36 30 24 18 13 4 4 5 10 9 7 16 6 17 18 11 15 15 7 5 9 4 5 16 19 14 16 20 17 16 15 9 14 19 18 18 12 14 16 17 18 18 18
41 39 35 29 21 19 17 11 13 4 6 17 20 18 18 14 5 13 28 9 5 7 3 3 17 18 14 9 17 20 20 19 4 5 10 15 21 19 19 16 17 19 18 18 17
42 40 34 27 21 21 21 21 3 3 6 6 16 15 9 12 16 15 20 14 9 12 12 11 4 10 10 8 16 22 23 18 8 4 10 5 17 19 20 20 17 18 17 18 17
43 39 34 27 17 22 21 17 7 6 4 6 7 8 9 8 8 16 18 9 3 10 7 7 1 10 7 10 16 20 21 15 13 14 7 13 7 18 23 20 20 19 16 17 18
45 41 36 33 14 18 17 16 12 5 6 5 8 15 16 14 17 9 13 8 19 12 8 5 6 7 12 13 19 7 12 16 13 11 4 9 6 15 14 23 20 21 21 20 19
47 43 38 29 16 24 22 25 11 5 10 4 2 10 19 9 15 9 5 10 13 9 6 2 3 4 12 10 13 11 18 12 6 5 9 16 14 9 11 16 18 19 20 21 20
49 45 41 31 16 27 31 14 5 10 2 2 2 9 24 8 11 9 13 15 10 8 6 3 2 2 2 6 4 13 20 5 4 7 8 1 13 12 3 5 11 13 18 19 17
49 45 37 30 27 35 20 4 12 10 15 5 3 11 15 15 13 14 20 13 10 9 12 8 5 10 10 9 8 22 14 8 9 8 9 1 9 6 12 12 13 10 4 3 12
49 38 30 27 35 32 11 11 9 7 8 4 0 6 12 12 9 14 18 23 16 17 10 9 3 12 10 7 11 17 12 4 7 2 2 7 6 8 12 11 9 10 9 10 11
35 24 24 30 32 23 10 17 8 8 8 4 2 7 10 20 13 12 23 22 18 21 13 9 5 2 3 2 14 14 12 7 4 7 5 6 5 7 4 10 8 6 6 3 7
23 7 21 30 24 10 11 11 15 14 14 7 4 4 6 12 15 16 27 22 20 23 16 16 6 2 4 8 14 12 13 7 7 2 4 5 4 2 6 3 1 2 4 1 2
5 5 32 32 8 6 11 14 10 9 11 5 3 5 6 18 21 23 27 22 25 26 25 15 8 7 12 5 9 14 10 16 5 5 1 1 1 3 5 3 1 2 2 1 0
9 4 27 28 9 10 8 16 10 12 16 9 5 7 6 13 15 23 20 8 25 25 24 12 10 7 6 3 5 10 16 15 3 2 6 4 3 5 2 1 3 4 6 5 5
5 6 5 9 8 15 18 12 15 12 7 4 4 1 9 17 18 24 19 12 21 26 9 5 5 10 13 13 13 16 24 16 15 5 6 9 8 8 8 7 6 5 4 4 5
3 4 4 13 15 19 21 14 16 12 17 16 6 11 9 8 18 18 18 9 17 20 5 4 4 3 4 1 19 18 23 18 20 19 13 13 17 12 13 11 8 4 0 3 3
5 5 3 12 20 17 18 15 18 22 11 14 16 18 16 18 14 24 24 15 24 10 10 6 5 3 4 4 9 19 18 19 24 23 26 12 13 9 11 7 6 6 8 4 5
4 2 6 10 16 15 15 21 22 20 15 19 17 6 13 25 18 14 16 14 21 31 23 17 9 8 5 2 9 3 25 30 29 26 29 23 15 6 5 4 6 8 6 5 4
Wind_Direction
236 238 239 239 240 246 251 254 259 256 258 263 256 260 249 232 222 199 205 203 190 172 194 194 215 308 280 232 254 245 235 234 230 216 233 152 185 225 69 136 189 172 354 54 149
232 235 235 239 237 241 244 248 256 258 248 254 250 249 245 229 206 219 212 204 188 195 173 169 144 337 272 235 211 213 225 230 244 220 233 184 197 169 178 170 190 175 115 130 149
228 231 233 238 235 238 241 247 250 250 242 255 242 231 225 216 227 232 215 198 187 164 147 142 103 51 269 255 212 216 233 230 206 225 240 185 202 174 201 201 201 193 160 150 163
227 230 231 238 237 235 235 242 247 256 244 242 240 222 217 183 224 165 200 198 195 179 138 117 98 129 248 234 213 228 230 253 200 170 182 184 188 203 214 193 224 191 161 163 174
227 230 232 237 238 233 234 242 250 254 241 235 240 215 199 220 235 231 188 193 177 174 175 150 145 175 218 231 247 226 195 208 195 170 193 205 204 205 211 176 118 166 159 174 181
225 227 233 237 237 233 232 237 246 249 237 235 227 209 207 235 235 213 179 185 183 180 176 170 172 184 197 242 251 335 239 194 186 182 165 203 209 197 223 185 173 167 179 182 187
221 224 230 232 231 230 230 234 240 248 233 233 228 234 212 234 197 180 173 186 186 195 180 179 144 166 167 144 194 274 229 197 197 188 180 191 204 222 206 164 187 187 187 189 194
217 221 227 226 227 224 225 233 237 230 231 237 241 242 239 219 213 188 171 162 175 184 250 198 181 189 215 115 86 194 294 207 192 179 185 189 232 218 203 184 200 198 192 194 195
210 216 221 223 226 222 225 232 233 242 245 248 226 208 266 160 172 190 184 157 140 90 69 186 145 166 107 187 136 237 195 215 184 192 157 200 221 235 177 199 205 201 201 198 203
208 212 213 217 221 220 222 225 251 256 235 241 249 190 208 181 153 159 163 144 121 100 116 270 95 173 129 202 204 156 197 221 216 194 208 201 230 168 185 205 212 204 201 205 207
203 207 209 212 221 208 191 179 208 217 216 231 186 223 262 180 145 156 144 107 108 128 181 185 208 206 185 235 222 203 202 207 220 186 201 219 225 233 196 213 223 215 209 206 209
200 202 203 206 198 191 194 209 230 33 235 227 244 265 236 166 136 154 154 138 134 132 130 130 224 207 189 214 243 196 186 203 324 144 219 223 237 232 225 211 216 220 215 213 207
195 195 196 194 184 189 199 212 221 223 276 263 225 234 226 216 171 174 175 150 163 132 196 203 228 199 195 181 256 198 184 190 179 177 237 288 254 241 235 224 221 226 222 221 209
189 187 185 179 176 192 201 188 151 100 269 239 212 228 203 193 195 164 165 126 101 146 170 240 124 198 174 202 229 198 183 167 148 164 215 193 256 216 218 220 218 216 220 221 214
184 180 178 168 171 181 190 172 142 143 254 179 186 155 180 179 127 195 161 98 149 141 142 188 195 198 190 202 223 236 165 159 162 204 259 201 243 252 227 215 210 214 214 214 213
179 174 174 171 159 166 152 147 126 160 233 215 128 183 202 166 166 144 127 79 104 103 62 95 90 207 208 210 252 182 120 115 134 186 241 222 212 236 202 220 218 212 218 215 209
175 172 173 168 154 152 146 147 145 219 86 192 248 246 200 172 130 170 147 141 139 136 152 123 135 209 211 190 320 236 148 128 171 205 232 48 209 251 228 222 242 230 220 217 216
170 169 170 168 148 147 146 123 213 176 216 140 207 237 192 154 173 180 151 155 161 117 137 154 195 180 186 207 184 222 187 160 179 199 197 82 228 236 241 241 243 225 243 286 223
161 162 166 167 163 154 169 195 214 187 211 253 326 250 203 197 151 158 185 169 177 158 130 160 175 149 185 215 244 222 227 106 92 44 167 196 246 274 249 232 237 236 231 237 225
149 153 163 161 165 171 189 216 223 171 141 116 228 231 216 178 166 168 177 182 176 180 149 142 106 137 118 78 285 263 218 170 182 155 207 184 252 238 220 228 165 195 219 230 214
136 135 161 164 154 171 202 213 219 243 219 175 215 275 275 192 182 182 185 172 174 172 181 148 123 90 140 201 193 213 213 224 180 178 210 171 216 119 184 162 203 78 120 142 131
114 137 164 154 167 191 207 201 203 204 198 175 179 245 281 211 184 183 192 178 173 161 170 168 133 154 195 133 214 278 231 220 201 172 84 15 231 162 119 83 12 353 86 93 304
126 104 161 165 185 189 196 217 229 199 200 175 187 203 244 235 200 199 194 163 171 168 169 170 156 117 141 309 265 226 224 224 204 91 189 162 193 144 171 149 118 107 123 124 118
122 137 140 194 216 188 195 219 222 210 207 172 163 239 292 257 221 194 167 160 168 176 138 107 154 175 184 202 147 196 209 218 217 205 147 217 191 187 206 193 165 152 137 132 161
103 122 157 181 202 192 190 202 211 216 213 203 201 203 230 259 207 178 157 138 170 175 107 107 123 102 26 230 180 190 192 195 206 218 216 218 219 186 191 197 182 175 9 232 218
124 135 174 171 189 200 191 212 211 210 184 210 227 221 250 273 200 165 160 162 173 162 157 177 166 116 30 351 155 184 192 198 224 220 235 236 205 223 262 224 218 250 272 223 216
92 89 161 149 187 190 208 216 217 215 217 233 215 208 245 265 225 189 163 158 170 169 174 173 145 164 176 242 109 122 196 203 217 218 222 218 225 176 207 205 216 241 249 244 221